DEMO8 (TENZING) (48951 NORAD) Tracking and Keplerian Element Data

This shows tracking and keplerian element data for the satellite.

Feedback or suggestion? Click here.




ElementValue
Catalog48951
NameDEMO8 (TENZING)
Epoch Orbit1384
Epoch Day268.31377144
Epoch Year2021
RAAN35.9681
Inclination97.5245
Eccentricity0.0015207
Argument of Perigee298.9814
Mean Anonmoly60.9892
Mean Motion15.13863648
Decay Rate9.95E-06
L11 48951U 21059CA 21268.31377144 .00000995 00000-0 58552-4 0 9995
L22 48951 97.5245 35.9681 0015207 298.9814 60.9892 15.13863648 13844

Live tracking and technical data element details for DEMO8 (TENZING) (NORAD 48951). DEMO8 (TENZING) can be tracked NOW for your location showing map with azimuth and elevation plus other details from your city location.

Track the satellite on the map from your city or location and see movement details for azimuth, elevation, latitude, longitude, range, height, and movement on the map or in text.







IsCatalogInMostPopularTable: catalog: 48951, numindb: 15
Update: records affected: 1



GetName: 48951 DEMO8 (TENZING)

Hit Count: updated at: Sun, 26 Sep 2021 16:48:13 GMT